FW2584 Weather Reports


Display with metric or nautical units.
time (UTC)temp
F
wind
direction
speed
MPH
gust
MPH
rain 1hr
in
rain 24hr
in
rain mn
in
humidity
%
barometer
mb
20260506165024 79 0 1.0 8.0 0.00 0.00 0.00 68 1015.3
20260506164538 79 0 0.0 6.0 0.00 0.00 0.00 68 1015.4
20260506164022 79 0 2.0 7.0 0.00 0.00 0.00 68 1015.6
20260506163522 78 0 1.0 7.0 0.00 0.00 0.00 70 1015.5
20260506163054 78 119 1.0 9.0 0.00 0.00 0.00 69 1015.6
20260506162523 78 0 1.0 9.0 0.00 0.00 0.00 69 1015.5
20260506162023 78 0 0.0 5.0 0.00 0.00 0.00 70 1015.4
20260506161540 78 245 1.0 7.0 0.00 0.00 0.00 69 1015.2
20260506161022 79 304 1.0 7.0 0.00 0.00 0.00 68 1015.1
20260506160523 79 0 1.0 7.0 0.00 0.00 0.00 67 1015.1
20260506160040 79 0 1.0 7.0 0.00 0.00 0.00 68 1015.4
20260506155523 79 0 1.0 7.0 0.00 0.00 0.00 68 1015.4
20260506155023 78 0 0.0 4.0 0.00 0.00 0.00 70 1015.4
20260506154544 77 248 0.0 7.0 0.00 0.00 0.00 71 1015.5
20260506154023 77 80 0.0 7.0 0.00 0.00 0.00 71 1015.5
20260506153523 77 140 2.0 7.0 0.00 0.00 0.00 70 1015.3
20260506153035 77 0 0.0 12.0 0.00 0.00 0.00 71 1015.3
20260506152523 76 134 1.0 12.0 0.00 0.00 0.00 71 1015.4
20260506152023 77 239 1.0 6.0 0.00 0.00 0.00 71 1015.4
20260506151543 76 244 2.0 6.0 0.00 0.00 0.00 72 1015.4
20260506151023 75 91 0.0 6.0 0.00 0.00 0.00 73 1015.4
20260506150522 74 182 0.0 6.0 0.00 0.00 0.00 76 1015.4
20260506150038 74 0 0.0 5.0 0.00 0.00 0.00 75 1015.6
20260506145523 73 0 0.0 5.0 0.00 0.00 0.00 76 1015.6
20260506145023 73 0 0.0 3.0 0.00 0.00 0.00 77 1015.6
20260506144538 72 0 0.0 5.0 0.00 0.00 0.00 77 1015.6
20260506144021 72 159 0.0 7.0 0.00 0.00 0.00 77 1015.6
20260506143523 72 0 1.0 7.0 0.00 0.00 0.00 77 1015.6
20260506143038 72 0 0.0 3.0 0.00 0.00 0.00 78 1015.5
20260506142527 71 232 0.0 8.0 0.00 0.00 0.00 79 1015.6
20260506142026 71 0 0.0 8.0 0.00 0.00 0.00 79 1015.7
20260506141533 71 230 0.0 7.0 0.00 0.00 0.00 80 1015.5
20260506141023 71 0 0.0 7.0 0.00 0.00 0.00 81 1015.6
20260506140520 70 273 0.0 5.0 0.00 0.00 0.00 81 1015.7
20260506140036 70 249 1.0 5.0 0.00 0.00 0.00 82 1015.8
20260506135521 70 0 1.0 5.0 0.00 0.00 0.00 81 1015.8
20260506135025 70 0 0.0 3.0 0.00 0.00 0.00 82 1015.8
20260506134540 70 0 0.0 3.0 0.00 0.00 0.00 82 1015.7
20260506134023 69 0 0.0 3.0 0.00 0.00 0.00 83 1015.8
20260506133523 69 0 0.0 3.0 0.00 0.00 0.00 84 1015.8
20260506133038 68 0 0.0 6.0 0.00 0.00 0.00 85 1015.7
20260506132523 68 0 0.0 6.0 0.00 0.00 0.00 85 1015.7
20260506132023 67 0 0.0 1.0 0.00 0.00 0.00 86 1015.6
20260506131537 67 0 0.0 1.0 0.00 0.00 0.00 86 1015.6
20260506131020 67 0 0.0 1.0 0.00 0.00 0.00 87 1015.7
20260506130522 67 0 0.0 1.0 0.00 0.00 0.00 86 1015.6
20260506130033 66 0 0.0 0.0 0.00 0.00 0.00 87 1015.7
20260506125522 66 0 0.0 0.0 0.00 0.00 0.00 88 1015.5
20260506125022 66 0 0.0 0.0 0.00 0.00 0.00 89 1015.3
20260506124535 65 0 0.0 1.0 0.00 0.00 0.00 89 1015.3
20260506124022 65 0 0.0 1.0 0.00 0.00 0.00 88 1015.5
20260506123522 65 0 0.0 0.0 0.00 0.00 0.00 89 1015.5
20260506123040 64 0 0.0 0.0 0.00 0.00 0.00 89 1015.2
20260506122522 64 0 0.0 0.0 0.00 0.00 0.00 88 1015.3
20260506122023 64 0 0.0 1.0 0.00 0.00 0.00 89 1015.3
20260506121546 64 0 0.0 1.0 0.00 0.00 0.00 89 1015.2
20260506121025 64 0 0.0 0.0 0.00 0.00 0.00 88 1015.1
20260506120523 64 0 0.0 0.0 0.00 0.00 0.00 89 1015.0
20260506120041 63 0 0.0 0.0 0.00 0.00 0.00 89 1015.0
20260506115523 63 0 0.0 0.0 0.00 0.00 0.00 89 1015.1
20260506115022 63 0 0.0 1.0 0.00 0.00 0.00 89 1015.0
20260506114535 62 0 0.0 1.0 0.00 0.00 0.00 90 1015.0
20260506114026 62 0 0.0 0.0 0.00 0.00 0.00 90 1014.9
20260506113523 62 0 0.0 0.0 0.00 0.00 0.00 90 1014.8
20260506113035 62 0 0.0 0.0 0.00 0.00 0.00 91 1014.9
20260506112526 61 0 0.0 0.0 0.00 0.00 0.00 92 1014.9
20260506112025 61 0 0.0 2.0 0.00 0.00 0.00 92 1014.9
20260506111538 61 0 0.0 2.0 0.00 0.00 0.00 92 1014.9
20260506111023 60 0 0.0 2.0 0.00 0.00 0.00 92 1014.8
20260506110523 60 0 0.0 1.0 0.00 0.00 0.00 92 1014.7
20260506110040 60 0 0.0 1.0 0.00 0.00 0.00 92 1014.7
20260506105522 60 0 0.0 1.0 0.00 0.00 0.00 92 1014.7
20260506105022 60 0 0.0 0.0 0.00 0.00 0.00 92 1014.7
20260506104536 60 0 0.0 0.0 0.00 0.00 0.00 92 1014.6
20260506104023 60 0 0.0 0.0 0.00 0.00 0.00 92 1014.6
20260506103522 60 0 0.0 0.0 0.00 0.00 0.00 92 1014.6
20260506103035 60 0 0.0 0.0 0.00 0.00 0.00 92 1014.6
20260506102523 60 0 0.0 0.0 0.00 0.00 0.00 92 1014.6
20260506102023 60 0 0.0 0.0 0.00 0.00 0.00 92 1014.6
20260506101538 60 0 0.0 0.0 0.00 0.00 0.00 92 1014.7
20260506101024 60 0 0.0 0.0 0.00 0.00 0.00 92 1014.7
20260506100522 60 0 0.0 0.0 0.00 0.00 0.00 92 1014.7
20260506100037 60 0 0.0 0.0 0.00 0.00 0.00 92 1014.7
20260506095523 60 0 0.0 0.0 0.00 0.00 0.00 92 1014.8
20260506095022 60 0 0.0 0.0 0.00 0.00 0.00 92 1014.8
20260506094533 60 0 0.0 0.0 0.00 0.00 0.00 92 1014.9
20260506094022 60 0 0.0 0.0 0.00 0.00 0.00 92 1015.0
20260506093525 60 0 0.0 0.0 0.00 0.00 0.00 92 1015.1
20260506093033 60 0 0.0 0.0 0.00 0.00 0.00 92 1015.1
20260506092522 60 0 0.0 0.0 0.00 0.00 0.00 92 1015.3
20260506092023 60 0 0.0 0.0 0.00 0.00 0.00 91 1015.2
20260506091535 60 0 0.0 0.0 0.00 0.00 0.00 91 1015.4
20260506091025 60 0 0.0 0.0 0.00 0.00 0.00 91 1015.3
20260506090522 60 0 0.0 0.0 0.00 0.00 0.00 91 1015.3
20260506090034 60 0 0.0 0.0 0.00 0.00 0.00 91 1015.4
20260506085523 60 0 0.0 0.0 0.00 0.00 0.00 91 1015.5
20260506085022 60 0 0.0 0.0 0.00 0.00 0.00 91 1015.3
20260506084544 60 0 0.0 0.0 0.00 0.00 0.00 91 1015.3
20260506084023 60 0 0.0 0.0 0.00 0.00 0.00 91 1015.3
20260506083525 60 0 0.0 0.0 0.00 0.00 0.00 91 1015.2
20260506083038 60 0 0.0 0.0 0.00 0.00 0.00 91 1015.2
20260506082525 60 0 0.0 0.0 0.00 0.00 0.00 91 1015.2
20260506082022 60 0 0.0 0.0 0.00 0.00 0.00 91 1015.3
20260506081540 60 0 0.0 0.0 0.00 0.00 0.00 91 1015.3
20260506081023 60 0 0.0 0.0 0.00 0.00 0.00 90 1015.3
20260506080523 60 0 0.0 0.0 0.00 0.00 0.00 90 1015.2
20260506073526 60 0 0.0 0.0 0.00 0.00 0.00 91 1015.1
20260506073039 60 0 0.0 0.0 0.00 0.00 0.00 91 1015.0
20260506072522 60 0 0.0 0.0 0.00 0.00 0.00 91 1015.2
20260506072021 60 0 0.0 0.0 0.00 0.00 0.00 91 1015.3
20260506071534 60 0 0.0 0.0 0.00 0.00 0.00 91 1015.1
20260506071023 60 0 0.0 0.0 0.00 0.00 0.00 90 1015.2
20260506070527 60 0 0.0 0.0 0.00 0.00 0.00 90 1015.2
20260506062022 61 0 0.0 0.0 0.00 0.00 0.00 88 1015.3
20260506061535 61 0 0.0 0.0 0.00 0.00 0.00 88 1015.4
20260506061026 62 0 0.0 0.0 0.00 0.00 0.00 87 1015.4
20260506060523 62 0 0.0 0.0 0.00 0.00 0.00 87 1015.4
20260506051025 62 0 0.0 0.0 0.00 0.00 0.00 87 1015.9
20260506050522 62 0 0.0 0.0 0.00 0.00 0.00 87 1015.9
20260506045022 62 0 0.0 0.0 0.00 0.00 0.00 87 1016.0
20260506044538 62 0 0.0 0.0 0.00 0.00 0.00 86 1016.0
20260506044022 62 0 0.0 0.0 0.00 0.00 0.00 86 1016.1
20260506043522 62 0 0.0 0.0 0.00 0.00 0.00 86 1016.2
20260506043035 62 0 0.0 0.0 0.00 0.00 0.00 86 1016.1
20260506042522 62 0 0.0 0.0 0.00 0.00 0.00 85 1016.2
20260506042022 63 0 0.0 0.0 0.00 0.00 0.00 85 1016.0
20260506041551 63 0 0.0 0.0 0.00 0.00 0.00 84 1016.1
20260506041022 63 0 0.0 0.0 0.00 0.00 0.00 84 1016.0
20260506040522 64 0 0.0 0.0 0.00 0.00 0.00 84 1016.0
20260506040034 64 0 0.0 0.0 0.00 0.00 0.00 83 1016.1
20260506035522 64 0 0.0 0.0 0.00 0.00 0.00 83 1016.1
20260506035022 64 0 0.0 0.0 0.00 0.00 0.00 83 1016.0
20260506034549 64 0 0.0 0.0 0.00 0.00 0.00 83 1016.1
20260506034025 64 0 0.0 0.0 0.00 0.00 0.00 82 1016.0
20260506033529 64 0 0.0 0.0 0.00 0.00 0.00 82 1016.1
20260506033039 64 0 0.0 0.0 0.00 0.00 0.00 82 1016.2
20260506032522 64 0 0.0 0.0 0.00 0.00 0.00 82 1016.2
20260506032022 65 0 0.0 0.0 0.00 0.00 0.00 82 1016.3
20260506031535 65 0 0.0 0.0 0.00 0.00 0.00 81 1016.3
20260506031024 65 0 0.0 0.0 0.00 0.00 0.00 80 1016.5
20260506030521 65 0 0.0 0.0 0.00 0.00 0.00 80 1016.5
20260506030037 66 0 0.0 0.0 0.00 0.00 0.00 79 1016.5
20260506025526 66 0 0.0 0.0 0.00 0.00 0.00 79 1016.6
20260506025022 66 0 0.0 0.0 0.00 0.00 0.00 79 1016.6
20260506024542 66 0 0.0 0.0 0.00 0.00 0.00 78 1016.6
20260506024022 67 0 0.0 0.0 0.00 0.00 0.00 77 1016.5
20260506023526 67 0 0.0 0.0 0.00 0.00 0.00 77 1016.4
20260506023039 67 0 0.0 2.0 0.00 0.00 0.00 76 1016.4
20260506022522 68 0 0.0 2.0 0.00 0.00 0.00 76 1016.4
20260506022023 68 0 0.0 3.0 0.00 0.00 0.00 75 1016.3
20260506021536 68 0 0.0 3.0 0.00 0.00 0.00 75 1016.2
20260506021021 68 0 0.0 0.0 0.00 0.00 0.00 74 1016.1
20260506020526 68 0 0.0 1.0 0.00 0.00 0.00 74 1016.0
20260506020109 69 0 0.0 1.0 0.00 0.00 0.00 73 1015.9
20260506020035 69 0 0.0 1.0 0.00 0.00 0.00 73 1015.9
20260506015522 69 0 0.0 1.0 0.00 0.00 0.00 72 1015.9
20260506015023 69 0 0.0 3.0 0.00 0.00 0.00 72 1015.9
20260506014533 69 0 0.0 5.0 0.00 0.00 0.00 71 1015.7
20260506014021 69 0 0.0 5.0 0.00 0.00 0.00 71 1015.7
20260506013521 70 0 0.0 1.0 0.00 0.00 0.00 70 1015.5
20260506013051 70 0 0.0 1.0 0.00 0.00 0.00 70 1015.5
20260506012522 70 0 0.0 1.0 0.00 0.00 0.00 69 1015.6
20260506012022 70 0 0.0 1.0 0.00 0.00 0.00 69 1015.6
20260506011541 70 0 0.0 1.0 0.00 0.00 0.00 69 1015.6
20260506011022 71 0 0.0 5.0 0.00 0.00 0.00 69 1015.5
20260506010522 71 0 0.0 5.0 0.00 0.00 0.00 67 1015.4
20260506010037 71 0 0.0 3.0 0.00 0.00 0.00 67 1015.3
20260506005526 71 0 0.0 3.0 0.00 0.00 0.00 67 1015.1
20260506005022 71 0 0.0 2.0 0.00 0.00 0.00 67 1015.1
20260506004540 72 0 0.0 5.0 0.00 0.00 0.00 67 1015.1
20260506004020 72 0 0.0 6.0 0.00 0.00 0.00 67 1014.9
20260506003521 72 0 1.0 6.0 0.00 0.00 0.00 67 1014.8
20260506003033 72 0 0.0 3.0 0.00 0.00 0.00 68 1014.7
20260506002521 72 0 0.0 3.0 0.00 0.00 0.00 67 1014.8
20260506002023 73 0 0.0 1.0 0.00 0.00 0.00 67 1014.7
20260506001542 73 0 0.0 1.0 0.00 0.00 0.00 66 1014.6
20260506001023 73 0 0.0 1.0 0.00 0.00 0.00 66 1014.7
20260506000522 73 0 0.0 1.0 0.00 0.00 0.00 65 1014.6
20260506000038 74 0 0.0 1.0 0.00 0.00 0.00 65 1014.4
20260505235521 74 0 0.0 0.0 0.00 0.00 0.00 64 1014.5
20260505235022 74 0 0.0 1.0 0.00 0.00 0.00 64 1014.5
20260505234538 75 0 0.0 1.0 0.00 0.00 0.00 63 1014.4
20260505234023 75 0 0.0 1.0 0.00 0.00 0.00 62 1014.3
20260505233521 76 0 0.0 3.0 0.00 0.00 0.00 62 1014.3
20260505233033 76 0 0.0 3.0 0.00 0.00 0.00 61 1014.2
20260505232521 76 149 0.0 5.0 0.00 0.00 0.00 59 1014.2
20260505232023 77 0 0.0 5.0 0.00 0.00 0.00 58 1014.1
20260505231536 77 0 0.0 2.0 0.00 0.00 0.00 55 1014.1
20260505231023 78 0 0.0 3.0 0.00 0.00 0.00 55 1014.2
20260505230525 78 0 0.0 3.0 0.00 0.00 0.00 53 1014.1
20260505230107 78 0 0.0 3.0 0.00 0.00 0.00 53 1014.2
20260505225521 78 0 0.0 3.0 0.00 0.00 0.00 53 1014.2
20260505225025 78 50 0.0 1.0 0.00 0.00 0.00 52 1014.4
20260505224539 78 0 0.0 2.0 0.00 0.00 0.00 51 1014.3
20260505224021 78 0 0.0 3.0 0.00 0.00 0.00 51 1014.4
20260505223524 78 0 0.0 4.0 0.00 0.00 0.00 49 1014.5
20260505223041 79 0 0.0 4.0 0.00 0.00 0.00 48 1014.5
20260505222525 79 0 0.0 4.0 0.00 0.00 0.00 47 1014.5
20260505222022 79 0 0.0 4.0 0.00 0.00 0.00 48 1014.5
20260505221543 79 0 0.0 1.0 0.00 0.00 0.00 48 1014.6
20260505221021 79 68 0.0 3.0 0.00 0.00 0.00 50 1014.6
20260505220520 79 0 0.0 3.0 0.00 0.00 0.00 49 1014.6
20260505220051 79 0 0.0 1.0 0.00 0.00 0.00 48 1014.5
20260505215522 79 0 0.0 1.0 0.00 0.00 0.00 51 1014.7
20260505215021 79 0 0.0 3.0 0.00 0.00 0.00 51 1014.6
20260505214537 79 0 0.0 3.0 0.00 0.00 0.00 51 1014.6
20260505214023 79 0 0.0 1.0 0.00 0.00 0.00 51 1014.7
20260505213527 79 0 0.0 1.0 0.00 0.00 0.00 50 1014.6
20260505213035 79 0 0.0 1.0 0.00 0.00 0.00 51 1014.6
20260505212521 79 0 0.0 1.0 0.00 0.00 0.00 51 1014.7
20260505212027 79 0 0.0 0.0 0.00 0.00 0.00 53 1014.7
20260505211533 79 0 0.0 0.0 0.00 0.00 0.00 53 1014.7
20260505211024 79 0 0.0 2.0 0.00 0.00 0.00 52 1014.8
20260505210521 79 0 0.0 5.0 0.00 0.00 0.00 53 1014.8
20260505210037 79 0 0.0 5.0 0.00 0.00 0.00 51 1014.7
20260505205522 80 211 0.0 4.0 0.00 0.00 0.00 52 1014.8
20260505205022 80 121 0.0 4.0 0.00 0.00 0.00 51 1014.8
20260505204539 80 0 1.0 4.0 0.00 0.00 0.00 51 1014.9
20260505204022 80 131 0.0 4.0 0.00 0.00 0.00 51 1014.7
20260505203522 79 0 0.0 1.0 0.00 0.00 0.00 51 1014.9
20260505203039 79 0 0.0 8.0 0.00 0.00 0.00 53 1015.0
20260505202522 79 0 0.0 8.0 0.00 0.00 0.00 52 1014.9
20260505202023 80 0 0.0 1.0 0.00 0.00 0.00 52 1015.0
20260505201535 80 0 0.0 1.0 0.00 0.00 0.00 51 1015.0
20260505201021 80 0 0.0 4.0 0.00 0.00 0.00 50 1015.0
20260505200523 80 0 0.0 6.0 0.00 0.00 0.00 50 1015.1
20260505200040 81 0 0.0 7.0 0.00 0.00 0.00 52 1015.3
20260505195520 80 125 0.0 7.0 0.00 0.00 0.00 50 1015.2
20260505195022 81 0 1.0 7.0 0.00 0.00 0.00 50 1015.2
20260505194538 81 0 0.0 1.0 0.00 0.00 0.00 49 1015.2
20260505194022 80 0 0.0 1.0 0.00 0.00 0.00 51 1015.3
20260505193524 80 0 0.0 8.0 0.00 0.00 0.00 53 1015.3
20260505193048 80 0 0.0 8.0 0.00 0.00 0.00 50 1015.5
20260505192522 82 0 1.0 8.0 0.00 0.00 0.00 48 1015.5
20260505192021 82 0 0.0 5.0 0.00 0.00 0.00 50 1015.5
20260505191541 81 0 1.0 5.0 0.00 0.00 0.00 50 1015.5
20260505191022 81 0 0.0 4.0 0.00 0.00 0.00 50 1015.7
20260505190521 81 0 0.0 1.0 0.00 0.00 0.00 49 1015.8
20260505190033 80 0 0.0 3.0 0.00 0.00 0.00 52 1016.0
20260505185524 80 0 0.0 3.0 0.00 0.00 0.00 53 1016.1
20260505185020 80 0 0.0 3.0 0.00 0.00 0.00 50 1015.9
20260505184533 80 0 0.0 3.0 0.00 0.00 0.00 51 1016.1
20260505184023 81 0 0.0 4.0 0.00 0.00 0.00 50 1016.2
20260505183521 80 134 0.0 6.0 0.00 0.00 0.00 52 1016.2
20260505183038 80 134 2.0 6.0 0.00 0.00 0.00 49 1016.1
20260505182521 80 0 0.0 8.0 0.00 0.00 0.00 50 1016.3
20260505182019 80 0 0.0 8.0 0.00 0.00 0.00 53 1016.3
20260505181546 80 0 2.0 8.0 0.00 0.00 0.00 49 1016.2
20260505181023 80 300 2.0 8.0 0.00 0.00 0.00 49 1016.2
20260505180523 80 0 0.0 3.0 0.00 0.00 0.00 52 1016.3
20260505180038 79 0 0.0 9.0 0.00 0.00 0.00 54 1016.4
20260505175523 79 0 0.0 9.0 0.00 0.00 0.00 51 1016.4
20260505175020 79 0 0.0 2.0 0.00 0.00 0.00 52 1016.5
20260505174533 79 0 0.0 5.0 0.00 0.00 0.00 54 1016.5
20260505174021 80 0 1.0 5.0 0.00 0.00 0.00 52 1016.5
20260505173521 80 0 0.0 5.0 0.00 0.00 0.00 53 1016.5
20260505173035 80 0 1.0 5.0 0.00 0.00 0.00 51 1016.6
20260505172520 79 0 0.0 6.0 0.00 0.00 0.00 52 1016.7
20260505172024 79 242 1.0 6.0 0.00 0.00 0.00 50 1016.9
20260505171535 79 0 1.0 6.0 0.00 0.00 0.00 51 1016.8
20260505171025 79 0 0.0 5.0 0.00 0.00 0.00 51 1016.9
20260505170521 79 0 0.0 4.0 0.00 0.00 0.00 53 1016.8
20260505170039 79 242 1.0 4.0 0.00 0.00 0.00 53 1017.0
20260505165523 79 0 1.0 4.0 0.00 0.00 0.00 52 1017.0